TimeCST,TemperatureF,Dew PointF,Humidity,Sea Level PressureIn,VisibilityMPH,Wind Direction,Wind SpeedMPH,Gust SpeedMPH,PrecipitationIn,Events,Conditions,WindDirDegrees,DateUTC
12:15 AM,12.9,8.6,83,29.94,10.0,NW,10.4,-,N/A,,Scattered Clouds,310,2013-01-31 06:15:00
12:35 AM,13.1,8.4,82,29.94,10.0,NW,16.1,-,N/A,,Overcast,320,2013-01-31 06:35:00
12:55 AM,13.1,8.4,82,29.94,10.0,NW,12.7,-,N/A,,Overcast,320,2013-01-31 06:55:00
1:15 AM,13.1,8.1,80,29.94,10.0,NNW,13.8,18.4,N/A,,Overcast,330,2013-01-31 07:15:00
1:35 AM,12.2,6.6,78,29.96,10.0,NW,13.8,21.9,N/A,,Overcast,320,2013-01-31 07:35:00
1:55 AM,11.5,5.4,76,29.97,10.0,NW,17.3,23.0,N/A,,Mostly Cloudy,310,2013-01-31 07:55:00
2:15 AM,10.4,4.5,77,29.98,10.0,NW,12.7,-,N/A,,Mostly Cloudy,310,2013-01-31 08:15:00
2:35 AM,10.2,4.5,78,29.97,10.0,NW,15.0,-,N/A,,Scattered Clouds,310,2013-01-31 08:35:00
2:55 AM,9.9,4.5,79,29.98,10.0,NW,11.5,-,N/A,,Mostly Cloudy,310,2013-01-31 08:55:00
3:15 AM,9.1,3.7,79,29.98,10.0,NW,10.4,-,N/A,,Scattered Clouds,310,2013-01-31 09:15:00
3:35 AM,8.8,3.6,79,29.98,10.0,WNW,15.0,-,N/A,,Clear,300,2013-01-31 09:35:00
3:55 AM,8.6,3.2,79,29.98,10.0,WNW,11.5,-,N/A,,Clear,300,2013-01-31 09:55:00
4:15 AM,8.6,2.3,76,29.99,10.0,NW,11.5,-,N/A,,Clear,310,2013-01-31 10:15:00
4:35 AM,8.6,2.3,76,30.00,10.0,WNW,17.3,-,N/A,,Clear,300,2013-01-31 10:35:00
4:55 AM,8.2,2.3,77,30.01,10.0,NW,11.5,-,N/A,,Clear,310,2013-01-31 10:55:00
5:15 AM,8.6,2.3,76,30.02,10.0,NW,17.3,-,N/A,,Scattered Clouds,310,2013-01-31 11:15:00
5:35 AM,8.8,2.3,75,30.03,10.0,NW,15.0,-,N/A,,Overcast,310,2013-01-31 11:35:00
5:55 AM,9.0,2.1,74,30.03,10.0,NW,13.8,20.7,N/A,,Overcast,310,2013-01-31 11:55:00
6:15 AM,8.4,1.8,74,30.04,10.0,NW,15.0,-,N/A,,Overcast,310,2013-01-31 12:15:00
6:35 AM,7.7,1.4,75,30.05,10.0,WNW,9.2,-,N/A,,Scattered Clouds,300,2013-01-31 12:35:00
6:55 AM,7.7,0.5,72,30.06,10.0,WNW,15.0,18.4,N/A,,Clear,300,2013-01-31 12:55:00
7:15 AM,7.3,-0.8,69,30.07,10.0,WNW,15.0,-,N/A,,Scattered Clouds,300,2013-01-31 13:15:00
7:35 AM,6.8,-0.4,72,30.09,10.0,WNW,15.0,-,N/A,,Scattered Clouds,300,2013-01-31 13:35:00
7:55 AM,6.8,-0.6,72,30.09,10.0,WNW,12.7,-,N/A,,Clear,300,2013-01-31 13:55:00
8:15 AM,7.5,-0.6,70,30.10,10.0,NW,15.0,18.4,N/A,,Clear,310,2013-01-31 14:15:00
8:35 AM,7.5,-1.3,67,30.12,10.0,NW,17.3,26.5,N/A,,Clear,310,2013-01-31 14:35:00
8:55 AM,7.7,-1.5,66,30.14,10.0,WNW,26.5,31.1,N/A,,Scattered Clouds,300,2013-01-31 14:55:00
9:15 AM,7.7,-1.5,66,30.16,10.0,WNW,24.2,29.9,N/A,,Scattered Clouds,300,2013-01-31 15:15:00
9:35 AM,7.3,-2.0,66,30.19,10.0,NW,28.8,33.4,N/A,,Mostly Cloudy,310,2013-01-31 15:35:00
9:55 AM,7.5,-2.0,65,30.20,10.0,NW,29.9,39.1,N/A,,Overcast,310,2013-01-31 15:55:00
10:15 AM,7.3,-2.2,65,30.22,10.0,NW,32.2,38.0,N/A,,Overcast,310,2013-01-31 16:15:00
10:35 AM,7.5,-2.6,63,30.23,10.0,NW,26.5,40.3,N/A,,Overcast,320,2013-01-31 16:35:00
10:55 AM,7.9,-2.2,64,30.25,10.0,NW,25.3,38.0,N/A,,Mostly Cloudy,310,2013-01-31 16:55:00
11:15 AM,8.1,-2.0,64,30.25,10.0,NW,26.5,32.2,N/A,,Scattered Clouds,310,2013-01-31 17:15:00
11:35 AM,8.6,-1.3,64,30.26,10.0,NW,21.9,31.1,N/A,,Scattered Clouds,320,2013-01-31 17:35:00
11:55 AM,8.6,-2.0,62,30.27,10.0,NW,27.6,33.4,N/A,,Scattered Clouds,310,2013-01-31 17:55:00
12:15 PM,9.0,-2.0,61,30.27,10.0,NW,25.3,32.2,N/A,,Scattered Clouds,320,2013-01-31 18:15:00
12:35 PM,9.7,-1.1,62,30.28,10.0,NW,26.5,32.2,N/A,,Mostly Cloudy,310,2013-01-31 18:35:00
12:55 PM,9.7,-1.1,62,30.28,10.0,NW,25.3,34.5,N/A,,Mostly Cloudy,310,2013-01-31 18:55:00
1:15 PM,9.7,-1.5,61,30.28,10.0,NW,27.6,35.7,N/A,,Scattered Clouds,320,2013-01-31 19:15:00
1:35 PM,9.5,-1.8,60,30.28,10.0,NW,25.3,35.7,N/A,,Scattered Clouds,320,2013-01-31 19:35:00
1:55 PM,9.9,-1.7,60,30.28,10.0,NW,26.5,33.4,N/A,,Clear,310,2013-01-31 19:55:00
2:15 PM,10.2,-1.7,59,30.28,10.0,NW,24.2,32.2,N/A,,Clear,320,2013-01-31 20:15:00
2:35 PM,10.4,-1.5,59,30.29,10.0,NW,26.5,33.4,N/A,,Clear,320,2013-01-31 20:35:00
2:55 PM,10.4,-0.8,61,30.30,10.0,NW,19.6,29.9,N/A,,Scattered Clouds,310,2013-01-31 20:55:00
3:15 PM,10.2,-1.5,59,30.30,10.0,NW,21.9,25.3,N/A,,Scattered Clouds,310,2013-01-31 21:15:00
3:35 PM,9.5,-2.0,60,30.31,10.0,NW,21.9,28.8,N/A,,Clear,320,2013-01-31 21:35:00
3:55 PM,9.3,-2.7,58,30.31,10.0,WNW,17.3,25.3,N/A,,Clear,300,2013-01-31 21:55:00
4:15 PM,8.8,-3.1,59,30.32,10.0,NW,21.9,-,N/A,,Clear,320,2013-01-31 22:15:00
4:35 PM,8.4,-3.1,60,30.33,10.0,NW,19.6,-,N/A,,Clear,320,2013-01-31 22:35:00
4:55 PM,8.1,-3.3,60,30.33,10.0,NW,17.3,20.7,N/A,,Clear,310,2013-01-31 22:55:00
5:15 PM,7.5,-3.8,60,30.34,10.0,NW,18.4,-,N/A,,Clear,320,2013-01-31 23:15:00
5:35 PM,6.4,-4.4,61,30.34,10.0,NW,16.1,20.7,N/A,,Clear,320,2013-01-31 23:35:00
5:55 PM,5.7,-4.4,63,30.35,10.0,NW,13.8,17.3,N/A,,Clear,320,2013-01-31 23:55:00
6:15 PM,5.0,-4.4,65,30.35,10.0,NW,10.4,-,N/A,,Clear,320,2013-02-01 00:15:00
6:35 PM,4.6,-4.5,66,30.36,10.0,NW,9.2,-,N/A,,Clear,320,2013-02-01 00:35:00
6:55 PM,4.1,-4.5,67,30.36,10.0,NNW,5.8,-,N/A,,Clear,330,2013-02-01 00:55:00
7:15 PM,3.4,-4.9,68,30.37,10.0,NW,8.1,-,N/A,,Clear,320,2013-02-01 01:15:00
7:35 PM,3.2,-4.5,70,30.37,10.0,NW,9.2,-,N/A,,Clear,320,2013-02-01 01:35:00
7:55 PM,3.0,-4.4,71,30.37,10.0,NW,9.2,-,N/A,,Clear,320,2013-02-01 01:55:00
8:15 PM,2.3,-4.9,72,30.37,10.0,NW,6.9,-,N/A,,Clear,310,2013-02-01 02:15:00
8:35 PM,2.1,-4.4,74,30.37,10.0,NW,6.9,-,N/A,,Clear,320,2013-02-01 02:35:00
8:55 PM,2.3,-4.9,72,30.38,10.0,NW,4.6,-,N/A,,Clear,320,2013-02-01 02:55:00
9:15 PM,1.0,-5.4,74,30.39,10.0,WNW,5.8,-,N/A,,Clear,300,2013-02-01 03:15:00
9:35 PM,0.9,-5.3,75,30.40,10.0,WNW,5.8,-,N/A,,Clear,300,2013-02-01 03:35:00
9:55 PM,0.9,-5.8,74,30.40,10.0,WNW,4.6,-,N/A,,Clear,290,2013-02-01 03:55:00
10:15 PM,0.9,-5.4,75,30.40,10.0,WNW,5.8,-,N/A,,Clear,300,2013-02-01 04:15:00
10:35 PM,0.3,-6.0,75,30.41,10.0,West,5.8,-,N/A,,Clear,280,2013-02-01 04:35:00
10:55 PM,0.3,-5.6,76,30.40,10.0,WNW,4.6,-,N/A,,Clear,290,2013-02-01 04:55:00
11:15 PM,0.3,-5.6,76,30.41,10.0,WNW,5.8,-,N/A,,Clear,290,2013-02-01 05:15:00
11:35 PM,-0.0,-5.3,79,30.40,10.0,WNW,4.6,-,N/A,,Clear,290,2013-02-01 05:35:00
11:55 PM,0.5,-4.9,78,30.41,10.0,West,4.6,-,N/A,,Clear,270,2013-02-01 05:55:00